Location: Staunton
(38.1490°N, 79.0720°W)
Time: 05:14:50
(UTC-05:00)

ISS - Pass Details

Date: 15 January 2019
Orbit: 404 x 407 km, 51.6° (Epoch: 16 January)

Event Time Altitude Azimuth Distance (km) Brightness Sun altitude
Exits shadow 05:52:10 15° 198° (SSW) 1,181 -1.6 -19.2°
Drops below altitude 10° 05:53:13 10° 182° (S) 1,455 -0.9 -19.0°
Sets 05:55:40 0° 163° (SSE) 2,309 0.4 -18.6°
